#timestamp,LO_Frequency,Hit,StdDev 
1501876815.6,286047000.2,N,0.9
1501876835.5,286046999.9,N,0.9
1501876855.3,286046999.9,N,0.8
1501876875.1,286046999.8,N,0.8
1501876895.9,286047000.0,N,0.8
1501876915.7,286046999.7,N,0.8
1501876935.6,286046999.8,N,0.8
1501876955.4,286046999.7,N,0.8
1501876975.2,286047000.2,N,0.8
1501876995.1,286047002.8,Y,0.0
1501876996.0,286047002.8,P,1.2
1501877015.8,286047000.0,N,1.2
1501877035.7,286046999.8,N,1.2
1501877055.5,286047000.2,N,1.1
1501877075.3,286047000.3,N,1.0
1501877095.2,286047000.0,N,1.0
1501877115.0,286046999.9,N,0.9
1501877115.9,286046999.9,N,0.9
1501877135.8,286682705.8,Y,0.0
1501877155.6,286047001.1,P,0.4
1501877175.4,286047000.7,N,0.3
1501877195.3,286047000.7,N,0.3
1501877215.1,286047000.8,N,0.2
1501877235.9,286046998.6,Y,0.0
1501877255.7,286046998.5,P,1.1
1501877275.5,286047000.9,N,1.1
1501877295.4,286047001.0,N,1.0
1501877315.2,286046998.1,N,1.3
1501877335.1,286047001.0,N,1.2
1501877336.0,286047001.0,N,1.2
1501877355.8,286046998.5,N,1.2
1501877375.6,286047001.0,N,1.2
1501877395.5,286047000.5,N,1.2
1501877415.3,286047000.5,N,1.1
1501877435.2,286047000.7,N,1.1
1501877455.9,286046998.7,N,1.1
1501877475.7,286047001.2,N,1.1
1501877495.6,286047000.6,N,1.1
1501877515.4,286047000.8,N,1.1
1501877535.2,286047000.8,N,1.0
1501877555.1,286047000.0,N,1.0
1501877556.0,286047000.0,N,1.0
1501877575.8,286047000.6,N,1.0
1501877595.7,286046998.3,N,1.0
1501877615.5,286046998.9,N,1.0
1501877635.3,286046999.1,N,1.0
1501877655.2,286046998.9,N,1.0
1501877675.0,286046996.6,Y,0.0
1501877675.9,286046996.6,P,1.7
1501877695.8,286046996.7,N,1.6
1501877715.6,286046997.6,N,1.4
1501877735.4,286046997.3,N,1.2
1501877755.3,286046996.9,N,1.2
1501877775.1,286046997.3,N,1.1
1501877795.9,286046997.7,N,1.0
1501877815.7,286046997.4,N,1.0
1501877835.5,286046997.7,N,0.9
1501877855.4,286046997.2,Y,0.0
1501877875.2,286046998.7,P,0.6
1501877895.1,286046999.1,N,0.7
1501877896.0,286046999.1,N,0.6
1501877915.8,286046999.0,N,0.6
1501877935.6,286046999.2,N,0.6
1501877955.5,286046996.6,Y,0.0
1501877975.3,286046998.1,P,0.3
1501877995.2,286047002.8,P,2.1
1501878015.9,286047000.5,N,1.8
1501878035.7,286047000.9,N,1.7
1501878055.6,286046999.5,N,1.5
1501878075.4,286046996.8,N,1.8
1501878095.2,286046998.9,N,1.7
1501878115.1,286046996.5,N,1.9
1501878116.0,286046996.5,N,2.0
1501878135.8,286046999.2,N,1.9
1501878155.7,286046998.9,N,1.8
1501878175.5,286046996.5,N,1.8
1501878195.4,286046996.6,N,1.9
1501878215.2,286046996.6,N,1.9
1501878235.0,286046997.5,N,1.8
1501878235.9,286046997.5,N,1.8
1501878255.8,286046995.0,N,1.9
1501878275.6,286046995.4,N,1.9
1501878295.5,286046995.2,N,2.0
1501878315.3,286046995.2,N,2.0
1501878335.1,286046997.7,N,2.0
1501878355.9,286046995.6,N,2.0
1501878375.7,286046995.1,N,2.0
1501878395.6,286046996.4,N,2.0
1501878415.4,286046993.4,Y,0.0
1501878435.2,286046999.5,P,1.0
1501878455.1,286046998.9,N,0.8
1501878456.0,286046998.9,N,0.7
1501878475.8,286046996.9,Y,0.0
1501878495.7,286047001.2,P,1.2
1501878515.5,286047001.2,N,1.2
1501878535.3,286046998.2,N,1.4
1501878555.2,286046998.9,N,1.3
1501878575.0,286046996.5,N,1.7
1501878575.9,286046996.5,N,1.8
1501878595.8,286046996.5,N,1.8
1501878615.6,286046997.0,N,1.8
1501878635.4,286046996.9,N,1.7
1501878655.3,286046999.2,N,1.7
1501878675.1,286046999.0,N,1.6
1501878695.9,286046999.5,N,1.6
1501878715.7,286046999.2,N,1.6
1501878735.5,286046999.4,N,1.5
1501878755.4,286046999.6,N,1.5
1501878775.2,286046999.0,N,1.5
1501878795.1,286046999.2,N,1.4
1501878796.0,286046999.2,N,1.4
1501878815.8,286046999.0,N,1.4
1501878835.6,286046999.2,N,1.3
1501878855.5,286046999.1,N,1.3
1501878875.3,286046998.9,N,1.3
1501878895.2,286046999.0,N,1.2
1501878915.0,286046998.9,N,1.2
1501878915.9,286046998.9,N,1.2
1501878935.7,286046999.5,N,1.2
1501878955.6,286046996.9,N,1.2
1501878975.4,286046996.7,N,1.2
1501878995.3,286046999.2,N,1.2
1501879015.1,286046996.6,N,1.3
1501879035.8,286046999.2,N,1.2
1501879055.7,286046998.7,N,1.1
1501879075.5,286046999.4,N,1.1
1501879095.4,286046998.8,N,1.1
1501879115.2,286046999.1,N,1.0
1501879135.0,286046998.5,N,1.0
1501879135.9,286046998.5,N,0.9
1501879155.8,286046998.3,N,0.8
1501879175.6,286046998.9,N,0.8
1501879195.5,286046998.9,N,0.8
1501879215.3,286046998.6,N,0.8
1501879235.2,286046998.7,N,0.7
1501879255.9,286046997.0,Y,0.0
1501879275.7,286046999.2,P,0.2
1501879295.6,286046999.1,P,0.2
1501879315.4,286046999.0,P,0.2
1501879335.3,286046998.6,Y,0.0
1501879355.1,286047000.6,P,0.8
1501879356.0,286047000.6,N,0.7
1501879375.8,286047000.3,N,0.7
1501879395.7,286047002.8,Y,0.0
1501879415.5,286047000.3,P,0.1
1501879435.4,286047002.7,P,1.2
1501879455.2,286047002.3,N,1.2
1501879475.0,286047002.5,N,1.1
1501879475.9,286047002.5,N,1.1
1501879495.8,286047001.5,N,1.0
1501879515.6,286047001.8,N,0.9
1501879535.5,286047002.0,N,0.9
1501879555.3,286047001.6,N,0.8
1501879575.1,286047001.6,N,0.8
1501879595.9,286047001.7,N,0.8
1501879615.7,286047001.4,N,0.8
1501879635.6,286047004.3,Y,0.0
1501879655.4,286047002.3,P,0.3
1501879675.2,286047002.0,P,0.2
1501879695.1,286047001.9,P,0.2
1501879696.0,286047001.9,Y,0.0
1501879715.8,286046998.2,P,1.9
1501879735.7,286046998.5,N,1.7
1501879755.5,286046999.9,N,1.5
1501879775.3,286047000.4,N,1.4
1501879795.2,286047000.2,N,1.3
1501879815.0,286046999.8,N,1.2
1501879815.9,286046999.8,N,1.1
1501879835.8,286047000.0,N,1.0
1501879855.6,286046999.7,N,1.0
1501879875.4,286047002.2,N,1.2
1501879895.3,286047002.0,N,1.2
1501879915.1,286047001.9,N,1.3
1501879935.9,286047002.2,N,1.3
1501879955.7,286047001.9,N,1.3
1501879975.5,286047001.5,N,1.3
1501879995.4,286047002.2,N,1.3
1501880015.2,286047001.4,N,1.3
1501880035.1,286047002.6,N,1.3
1501880036.0,286047002.6,N,1.3
1501880055.8,286047002.6,N,1.3
1501880075.6,286047001.8,N,1.3
1501880095.5,286047001.6,N,1.3
1501880115.3,286047001.3,N,1.3
1501880135.2,286047003.8,N,1.4
1501880155.9,286047003.5,N,1.4
1501880175.7,286047003.2,N,1.4
1501880195.6,286047003.7,N,1.5
1501880215.4,286047003.0,N,1.5
1501880235.3,286047003.1,N,1.5
1501880255.1,286047003.0,N,1.5
1501880256.0,286047003.0,N,1.4
1501880275.8,286047002.9,N,1.2
1501880295.7,286047002.9,N,1.2
1501880315.5,286047003.3,N,1.2
1501880335.4,286047003.8,Y,0.0
1501880355.2,286047002.5,P,0.2
1501880375.0,286047002.5,P,0.2
1501880375.9,286047002.5,P,0.2
1501880395.8,286047002.1,Y,0.0
